Location: ???????
(55.9142°N, 37.8256°E)
Time: 11:30:28
(UTC+00:00)

Cosmos 1536 - Pass Details

Date: 14 April 2024
Orbit: 514 x 543 km, 82.6° (Epoch: 18 May)

Event Time Altitude Azimuth Distance (km) Brightness Sun altitude
Rises 00:25:31 0° 344° (NNW) 2,686 6.7 -15.1°
Reaches altitude 10° 00:27:44 10° 338° (NNW) 1,785 5.7 -14.8°
Maximum altitude 00:31:28 45° 265° (W) 720 3.0 -14.5°
Enters shadow 00:33:30 23° 204° (SSW) 1,134 3.9 -14.2°
